COSMOS 2407 1 28380U 04028A 21019.15490778 .00000052 00000-0 38000-4 0 9991 2 28380 82.9610 97.1633 0039715 17.5208 342.7320 13.76086075828424 SL-8 R/B 1 28381U 04028B 21018.69759258 .00000069 00000-0 53184-4 0 9999 2 28381 82.9568 80.1326 0030566 308.2596 164.4378 13.78254667829613